HALOSAT (43549 NORAD) Tracking and Keplerian Element Data

This shows tracking and keplerian element data for the satellite.

Feedback or suggestion? Click here.




ElementValue
Catalog43549
NameHALOSAT
Epoch Orbit4361
Epoch Day111.91136116
Epoch Year2019
RAAN273.6696
Inclination51.6377
Eccentricity0.0005347
Argument of Perigee280.0645
Mean Anonmoly79.9745
Mean Motion15.60041285
Decay Rate0.00012354
L11 43549U 98067NX 19111.91136116 .00012354 00000-0 15561-3 0 9992
L22 43549 51.6377 273.6696 0005347 280.0645 79.9745 15.60041285 43616

Live tracking and technical data element details for HALOSAT (NORAD 43549). HALOSAT can be tracked NOW for your location showing map with azimuth and elevation plus other details from your city location.

Track the satellite on the map from your city or location and see movement details for azimuth, elevation, latitude, longitude, range, height, and movement on the map or in text.







IsCatalogInMostPopularTable: catalog: 43549, numindb: 126
Update: records affected: 1



GetName: 43549 HALOSAT

Hit Count: updated at: Tue, 23 Apr 2019 20:12:27 GMT